DateTimeUTC,F1_A11,F1_S11,BsB_S11,BsG_S11,BsR_S11,BbsB_S11,BbsG_S11,BbsR_S11,BaB_A11,BaG_A11,BaR_A11,Tu_S11,T_S11,Uu_S11,U_S11,P_S11,T1_A11
2021-09-10T23:00:00Z,00000200,21000000,,,,,,,0000.08,-000.01,0000.38,19.0,26.1,,00.0,0665.9,31.1
2021-09-10T23:01:00Z,00000200,21000000,,,,,,,0000.66,0000.16,-000.49,19.0,26.1,,00.0,0665.9,31.1
2021-09-10T23:02:00Z,00000200,21000000,,,,,,,-000.22,0000.18,0000.18,19.1,26.2,,00.0,0665.9,31.1
2021-09-10T23:03:00Z,00000200,61000000,,,,,,,0000.36,0000.26,0000.30,19.1,26.2,,00.0,0665.9,31.1
2021-09-10T23:04:00Z,00000200,41000000,0000.26,0000.31,0000.07,-000.46,0000.09,0000.18,0000.35,-000.19,0000.23,19.5,26.1,,00.0,0666.9,31.1
2021-09-10T23:05:00Z,00000200,01000000,0000.32,0000.37,0000.19,-000.03,0000.29,-000.19,-000.09,0000.36,-000.32,19.5,26.1,,00.0,0666.9,31.1
2021-09-10T23:06:00Z,00000200,01000000,0000.69,0000.58,0000.24,0000.20,0000.36,0000.06,0000.03,-000.36,0000.11,19.4,26.0,,00.0,0666.9,31.1
2021-09-10T23:07:00Z,00000200,01000000,0000.65,0000.67,0000.26,0000.50,0000.00,0000.50,0000.02,0000.59,0000.10,19.3,26.0,,00.0,0666.9,31.1
2021-09-10T23:08:00Z,00000200,01000000,0000.98,0000.74,0000.41,0000.07,0000.26,0000.11,0000.05,-000.13,0000.07,19.2,25.9,,00.0,0666.9,31.1
2021-09-10T23:09:00Z,00000200,01000000,0001.16,0000.45,0000.30,-000.28,0000.21,0000.13,0000.54,0000.27,0000.11,19.2,25.9,,00.0,0666.9,31.1
2021-09-10T23:10:00Z,00000200,01000000,0000.09,0000.78,0000.27,0000.06,-000.12,0000.23,0000.07,0000.54,0000.19,19.1,25.8,,00.0,0666.9,31.0
2021-09-10T23:11:00Z,00000200,01000000,0000.96,0000.62,0000.18,0000.07,0000.14,0000.18,0000.81,-000.06,0000.42,19.0,25.8,,00.0,0666.9,31.0
2021-09-10T23:12:00Z,00000200,01000000,0000.95,0000.50,0000.13,0000.08,0000.38,0000.11,0000.11,0000.29,0000.24,19.0,25.7,,00.0,0667.0,31.0
2021-09-10T23:13:00Z,00000200,01000000,0000.47,0000.74,0000.57,0000.47,0000.35,-000.11,0000.41,0000.66,0000.59,19.1,25.8,,00.0,0667.0,31.1
2021-09-10T23:14:00Z,00000200,01000000,0000.26,0000.63,0000.29,-000.10,0000.17,-000.12,0000.18,0000.17,0000.47,19.1,25.8,,00.0,0667.0,31.1
2021-09-10T23:15:00Z,00000200,01000000,-000.12,0000.52,0000.14,0000.49,0000.30,0000.18,0000.36,0000.60,-000.10,19.2,25.8,,00.0,0667.0,31.1
2021-09-10T23:16:00Z,00000200,01000000,0000.81,0000.42,-000.02,0000.78,0000.29,0000.05,0000.19,-000.11,0000.11,19.3,25.8,,00.0,0667.0,31.1
2021-09-10T23:17:00Z,00000200,01000000,0000.36,0000.78,0000.45,0000.14,0000.45,0000.32,0000.27,0000.07,0000.04,19.3,25.8,,00.0,0667.0,31.1
2021-09-10T23:18:00Z,00000200,01000000,0000.76,0000.65,0000.35,0000.53,0000.29,0000.07,0000.09,0000.39,0000.02,19.2,25.8,,00.0,0667.0,31.1
2021-09-10T23:19:00Z,00000200,01000000,0001.27,0000.35,0000.39,0000.47,0000.19,0000.24,-000.19,-000.35,0000.08,19.2,25.8,,00.0,0667.0,31.1
2021-09-10T23:20:00Z,00000200,01000000,0001.38,0000.65,0000.20,-000.04,0000.25,-000.08,0000.34,0000.28,0000.41,19.1,25.7,,00.0,0667.0,31.1
2021-09-10T23:21:00Z,00000200,01000000,0001.06,0000.25,0000.02,0000.41,0000.27,-000.19,0000.17,0000.54,-000.34,19.0,25.7,,00.0,0667.0,31.0
2021-09-10T23:22:00Z,00000200,01000000,0001.16,0000.76,0000.42,-000.04,0000.09,0000.10,0000.16,-000.56,0000.22,18.9,25.7,,00.0,0667.0,31.0
2021-09-10T23:23:00Z,00000200,01000000,0001.39,0000.14,0000.28,-000.15,0000.06,0000.26,0000.39,0000.31,0000.23,18.9,25.6,,00.0,0667.0,31.0
2021-09-10T23:24:00Z,00000200,01000000,0000.36,0000.35,0000.53,0000.27,-000.04,0000.42,-000.28,0000.18,0000.07,18.8,25.6,,00.0,0666.9,31.0
2021-09-10T23:25:00Z,00000200,01000000,0001.05,0000.27,-000.03,-000.17,0000.14,0000.07,0000.44,0000.30,-000.14,18.8,25.5,,00.0,0666.9,31.0
2021-09-10T23:26:00Z,00000200,01000000,0000.31,0000.79,0000.33,0000.10,0000.00,0000.20,0000.27,0000.21,0000.52,18.7,25.5,,00.0,0666.9,31.0
2021-09-10T23:27:00Z,00000200,01000000,0001.19,0000.38,0000.12,-000.01,0000.17,-000.02,0000.52,0000.28,0000.26,18.7,25.5,,00.0,0666.9,31.0
2021-09-10T23:28:00Z,00000200,01000000,0000.44,0000.49,0000.34,0000.01,-000.10,0000.29,0000.11,0000.50,0000.38,18.7,25.5,,00.0,0667.0,31.0
2021-09-10T23:29:00Z,00000200,01000000,0000.41,0000.43,0000.30,-000.03,0000.29,0000.23,0000.59,0000.61,0000.31,18.8,25.5,,00.0,0667.0,31.0
2021-09-10T23:30:00Z,00000200,01000000,0000.03,0000.76,0000.64,-000.02,0000.26,0000.35,0000.30,0000.22,0000.52,18.9,25.5,,00.0,0667.0,31.1
2021-09-10T23:31:00Z,00000200,01000000,-000.28,0000.58,0000.48,-000.35,0000.29,0000.05,0000.52,0000.45,-000.11,19.0,25.6,,00.0,0667.0,31.1
2021-09-10T23:32:00Z,00000200,01000000,0000.52,0000.52,0000.02,0000.45,0000.19,0000.03,0000.52,0000.19,0000.31,19.0,25.6,,00.0,0667.0,31.1
2021-09-10T23:33:00Z,00000200,01000000,0000.82,0000.41,0000.11,-000.33,0000.35,0000.06,0000.07,0000.38,0000.04,19.1,25.7,,00.0,0667.0,31.1
2021-09-10T23:34:00Z,00000200,01000000,0000.89,0000.65,0000.16,-000.47,0000.21,0000.09,0000.33,0000.15,0000.44,19.2,25.7,,00.0,0667.0,31.1
2021-09-10T23:35:00Z,00000200,01000000,-000.03,0000.55,0000.37,0000.32,0000.17,0000.10,-000.39,0000.00,-000.12,19.2,25.7,,00.0,0667.0,31.1
2021-09-10T23:36:00Z,00000200,01000000,0000.46,0000.58,0000.51,-000.27,0000.28,0000.35,0000.22,-000.16,0000.11,19.1,25.7,,00.0,0667.0,31.1
2021-09-10T23:37:00Z,00000200,01000000,0000.41,0000.46,0000.43,-000.65,0000.29,0000.23,0000.11,0000.27,-000.24,19.1,25.6,,00.0,0667.0,31.1
2021-09-10T23:38:00Z,00000200,01000000,0001.85,0000.31,0000.25,0000.07,0000.55,0000.31,-000.07,0000.00,0000.53,19.0,25.6,,00.0,0667.0,31.0
2021-09-10T23:39:00Z,00000200,01000000,0001.52,0000.45,0000.56,-000.16,0000.06,0000.34,0000.27,0000.27,-000.12,18.9,25.6,,00.0,0666.9,31.0
2021-09-10T23:40:00Z,00000200,01000000,0000.68,0000.84,-000.02,-000.19,0000.11,-000.19,0000.45,-000.28,-000.16,18.8,25.5,,00.0,0666.9,31.0
2021-09-10T23:41:00Z,00000200,01000000,0001.02,0000.84,0000.41,0000.05,0000.00,0000.14,0000.00,0000.29,0000.25,18.8,25.5,,00.0,0667.0,31.0
2021-09-10T23:42:00Z,00000200,01000000,0001.03,0000.83,0000.10,0000.48,0000.23,-000.08,0000.80,0000.88,0000.66,18.8,25.4,,00.0,0667.0,31.0
2021-09-10T23:43:00Z,00000200,01000000,0000.95,0000.39,0000.41,-000.28,0000.30,0000.14,0000.02,0000.30,0000.10,18.8,25.4,,00.0,0667.0,31.0
2021-09-10T23:44:00Z,00000200,01000000,0000.64,0000.55,0000.38,0000.02,0000.11,0000.21,0000.55,0000.65,0000.55,18.9,25.5,,00.0,0667.0,31.0
2021-09-10T23:45:00Z,00000200,01000000,0000.88,0000.84,0000.28,-000.31,0000.48,0000.01,0000.22,-000.07,0000.20,19.0,25.5,,00.0,0667.0,31.1
2021-09-10T23:46:00Z,00000200,01000000,0001.59,0000.33,0000.17,0000.32,-000.01,-000.05,0000.20,0000.01,-000.03,19.1,25.6,,00.0,0667.0,31.1
2021-09-10T23:47:00Z,00000200,01000000,0001.01,0000.50,0000.49,0000.28,0000.40,0000.27,0000.16,0000.33,0000.29,19.2,25.6,,00.0,0667.0,31.1
2021-09-10T23:48:00Z,00000200,01000000,0000.25,0000.88,0000.26,0000.39,0000.30,0000.35,-000.09,0000.01,-000.07,19.2,25.7,,00.0,0667.0,31.1
2021-09-10T23:49:00Z,00000200,01000000,0001.35,0000.43,0000.20,0000.63,0000.20,-000.15,0000.37,0000.36,0000.27,19.3,25.7,,00.0,0667.0,31.1
2021-09-10T23:50:00Z,00000200,01000000,0001.14,0000.49,0000.27,0000.02,0000.11,0000.32,0000.12,-000.63,0000.44,19.4,25.8,,00.0,0667.0,31.1
2021-09-10T23:51:00Z,00000200,01000000,0001.41,0000.45,0000.50,0000.27,0000.52,0000.01,0000.12,0000.86,-000.04,19.4,25.8,,00.0,0667.0,31.1
2021-09-10T23:52:00Z,00000200,01000000,0000.31,0000.90,0000.48,0000.21,0000.28,0000.17,-000.05,-000.10,-000.50,19.4,25.8,,00.0,0667.0,31.1
2021-09-10T23:53:00Z,00000200,01000000,0000.90,0000.41,0000.36,-000.25,0000.05,-000.10,-000.15,-000.48,-000.08,19.3,25.7,,00.0,0667.0,31.1
2021-09-10T23:54:00Z,00000200,01000000,0001.15,0000.56,0000.42,0000.35,0000.02,0000.20,0000.55,0000.45,0000.22,19.2,25.7,,00.0,0667.0,31.1
2021-09-10T23:55:00Z,00000200,01000000,0001.07,0000.97,0000.29,0000.24,0000.02,0000.28,-000.43,-000.25,-000.05,19.1,25.7,,00.0,0667.0,31.1
2021-09-10T23:56:00Z,00000200,01000000,0000.82,0000.59,0000.27,0000.66,-000.14,0000.03,0000.15,0000.22,0000.04,19.1,25.6,,00.0,0667.0,31.1
2021-09-10T23:57:00Z,00000200,41000000,,,,,,,0000.49,0000.43,0000.68,19.1,25.6,,00.0,0667.1,31.1
2021-09-10T23:58:00Z,00000200,61000000,,,,,,,-000.04,0000.42,-000.14,18.8,25.7,,00.0,0666.0,31.1
2021-09-10T23:59:00Z,00000200,21000000,,,,,,,0000.08,-000.20,-000.24,18.8,25.8,,00.0,0666.0,31.1
